Lapse_Rate
8.4 9.5 9.6 9.6 9.6 9.6 9.6 9.6 9.7 9.5 9.6 9.6 9.6 9.7 9.7 9.7 9.4 9.3 9.5 9.0 9.3 9.4 9.4 9.1 8.6 9.1 9.2 8.6 8.2 8.0 8.0 7.7 7.8 7.9 7.8 7.8 7.9 7.9 7.8 7.6 7.5 7.3 7.3 7.1
9.3 9.5 9.6 9.6 9.6 9.6 9.6 9.6 9.6 9.6 9.6 9.6 9.7 9.9 9.7 9.7 9.3 9.0 9.6 9.6 9.2 9.3 9.5 9.4 9.2 9.2 9.2 8.8 8.2 8.2 7.9 7.9 8.0 8.2 8.0 8.1 8.0 8.0 7.9 7.7 7.5 7.5 7.4 7.5
9.3 9.4 9.4 9.5 9.3 9.6 9.6 9.6 9.6 9.6 9.4 9.7 9.6 9.7 9.6 9.7 9.7 9.1 8.8 9.5 9.1 9.2 9.4 9.4 9.2 9.3 9.1 8.9 8.5 8.5 8.0 8.2 8.3 8.3 8.3 8.3 8.3 8.4 8.4 8.3 8.2 8.2 7.9 7.7
9.3 9.3 9.5 8.9 9.5 9.6 9.6 9.6 9.6 9.7 9.7 9.7 9.6 9.4 9.6 9.7 9.7 9.3 8.6 9.1 9.2 9.0 9.4 9.4 9.3 9.3 9.0 8.8 8.6 8.4 8.4 8.4 8.5 8.6 8.5 8.5 8.5 8.5 8.4 8.3 8.3 8.3 8.4 7.9
9.3 9.3 7.6 8.4 8.5 9.0 9.0 9.4 9.6 9.6 9.7 9.7 9.7 9.7 9.4 9.4 8.8 9.4 9.1 9.6 9.1 9.3 9.5 9.2 9.3 9.3 9.1 8.7 8.8 8.7 8.7 8.6 8.5 8.5 8.6 8.6 8.5 8.2 8.2 8.2 8.0 8.1 8.1 8.0
9.2 9.3 9.6 9.5 7.9 8.3 8.6 8.9 9.3 9.6 9.7 9.7 9.7 9.6 9.4 9.3 9.1 8.4 9.0 9.2 8.8 9.4 9.4 9.4 9.3 9.3 9.0 8.8 8.7 8.7 8.7 8.6 8.5 8.5 8.5 8.4 8.1 7.9 8.0 8.0 8.1 7.9 7.8 7.5
9.2 9.3 9.3 8.8 7.9 8.3 8.9 9.0 9.3 9.1 9.2 9.5 9.7 9.5 9.6 9.5 8.8 9.0 8.8 9.1 9.3 9.3 9.5 9.5 9.3 9.3 9.0 9.0 9.0 9.0 8.7 8.6 8.6 8.4 8.1 8.0 8.0 8.2 8.0 8.0 7.8 7.6 7.5 7.2
9.3 9.3 9.4 8.0 8.1 8.5 8.9 8.5 8.7 9.1 9.0 9.2 9.6 9.7 9.5 9.3 8.9 9.0 9.1 9.2 9.3 9.4 9.3 9.3 9.1 9.1 9.0 8.9 9.0 9.0 8.7 8.5 8.4 8.0 7.8 7.9 8.0 8.0 7.9 7.9 7.5 7.5 7.1 6.9
9.4 9.3 8.8 8.6 8.4 8.0 8.6 8.7 8.1 8.7 8.8 8.8 9.2 9.1 9.2 9.0 8.7 8.8 8.9 9.3 9.1 9.0 9.3 9.3 8.7 8.6 8.6 8.5 8.6 8.5 8.3 8.1 8.1 7.8 7.7 7.7 7.6 7.7 7.7 7.5 7.1 6.8 6.8 6.9
8.3 7.2 7.7 8.2 7.2 7.9 7.6 7.5 7.7 8.2 8.2 8.1 8.0 7.8 7.7 7.8 7.4 8.1 7.6 8.2 8.3 7.9 8.9 8.6 8.1 8.0 7.8 7.9 7.9 7.8 7.9 7.9 8.2 7.9 7.8 7.7 7.6 7.5 7.4 7.1 6.8 6.5 6.7 6.8
8.2 6.6 6.9 7.1 7.8 8.1 7.6 6.9 7.5 7.6 7.4 7.2 7.2 7.1 7.0 6.8 6.6 6.4 6.3 6.9 7.4 7.5 7.7 7.7 7.7 7.7 7.5 7.5 7.7 7.8 7.7 7.9 8.0 8.0 7.7 7.5 7.3 7.1 7.0 6.9 6.5 6.6 6.6 6.6
7.0 6.5 6.9 7.5 7.6 6.7 7.5 6.6 6.5 7.4 7.2 6.7 6.6 6.4 6.4 6.3 6.1 6.1 6.1 7.1 7.3 7.2 7.3 7.3 7.3 7.3 7.5 7.7 7.8 7.8 7.7 7.8 7.7 7.4 7.3 7.1 7.0 6.9 6.7 6.7 6.6 6.5 6.5 6.2
6.0 6.5 7.1 6.8 6.4 5.9 6.1 5.4 6.3 6.9 6.3 6.5 6.6 6.4 6.5 6.8 6.9 7.1 7.2 7.0 7.1 7.3 7.5 7.6 7.6 8.0 8.0 7.8 7.6 7.4 7.4 7.5 7.4 7.3 7.3 6.8 6.6 6.5 6.7 6.5 6.4 6.3 6.3 6.1
7.1 6.9 6.8 6.5 6.3 5.8 5.6 5.4 5.9 6.4 6.4 6.7 6.9 7.0 6.9 7.3 7.4 7.5 7.6 7.9 7.9 8.0 8.0 7.8 7.8 7.8 7.9 7.6 7.4 7.1 7.3 7.3 7.0 6.3 6.4 6.2 6.3 6.3 6.6 6.5 6.3 6.3 6.2 6.2
7.1 6.7 6.4 6.0 6.2 6.0 5.7 5.7 5.6 5.9 6.3 6.8 6.5 6.6 6.8 6.7 6.8 6.9 7.0 7.3 7.4 7.3 7.4 7.0 7.5 7.4 7.6 7.4 6.9 6.7 6.5 6.4 6.2 6.4 5.8 6.1 6.2 6.3 6.4 5.4 5.2 5.9 6.1 6.1
6.4 6.2 6.0 6.0 5.9 5.9 5.4 4.7 4.9 5.4 5.6 5.9 6.1 6.3 6.2 6.2 6.5 6.4 6.5 6.8 6.8 6.8 6.9 7.1 7.3 7.5 7.2 6.8 6.6 6.3 6.2 6.3 6.3 6.1 6.0 6.2 6.2 6.3 6.1 6.1 5.5 5.2 5.8 5.9
5.9 5.8 5.5 5.0 5.4 5.2 4.7 5.1 5.4 5.7 5.2 5.7 5.8 6.2 6.0 6.4 6.0 6.3 6.6 6.6 6.9 7.1 7.3 7.4 7.2 6.9 6.6 6.7 6.6 6.2 5.9 6.1 6.0 5.9 6.0 6.2 6.2 6.1 5.6 5.5 5.7 5.6 5.4 5.4
5.3 4.8 5.1 4.8 4.4 4.6 4.3 4.1 4.5 4.9 4.8 5.2 5.6 6.0 5.5 6.0 6.4 6.3 6.6 6.6 6.4 6.8 6.7 6.9 6.8 6.7 6.5 6.7 6.3 5.2 5.1 5.4 5.8 5.5 5.3 5.4 5.4 5.5 5.6 5.6 5.9 6.0 5.9 5.7
5.0 4.5 5.1 4.5 4.2 4.5 4.6 4.8 4.7 5.6 5.6 5.2 6.1 6.8 6.7 6.5 6.3 6.4 6.6 6.7 7.1 7.0 7.0 6.5 6.5 6.4 6.2 6.0 5.8 5.2 5.2 5.1 5.2 5.2 5.2 5.5 5.6 5.6 5.6 5.5 5.8 5.9 5.8 5.6
5.3 5.0 5.3 4.6 4.5 4.3 4.9 4.9 5.6 5.4 5.6 6.3 6.8 6.8 6.7 6.9 6.9 6.4 6.6 6.3 6.1 6.2 6.2 5.9 5.9 5.8 5.7 5.5 5.6 5.4 5.8 5.2 5.4 5.4 5.8 5.7 5.6 5.2 5.7 5.8 5.6 5.8 5.9 6.2
4.7 5.0 4.7 5.2 5.5 5.5 5.7 5.3 6.1 5.8 6.1 5.6 6.0 5.5 5.7 5.2 5.0 5.2 5.4 5.5 5.4 5.5 5.6 5.6 5.3 5.3 5.5 5.4 5.4 5.3 5.1 5.2 5.4 5.4 5.6 5.5 5.2 5.3 5.4 5.5 5.5 6.0 5.6 5.7
4.7 4.7 4.9 5.2 5.6 5.3 5.7 5.6 5.8 5.6 5.9 5.7 5.0 4.9 5.2 5.2 5.3 5.2 5.0 4.9 5.3 5.4 5.3 4.7 4.9 5.0 5.1 5.2 5.0 5.1 4.9 5.2 5.0 5.0 5.4 5.6 5.5 5.6 5.6 5.4 5.5 5.6 5.6 5.6
5.1 4.8 5.4 5.3 5.0 4.8 4.7 4.7 5.4 5.3 5.1 5.1 5.4 5.4 5.1 5.1 5.1 5.2 5.2 5.0 5.2 4.9 5.0 5.3 5.1 5.3 5.5 5.4 5.2 5.1 5.0 5.2 5.1 5.4 5.6 5.8 6.0 6.0 5.8 5.7 5.4 5.4 5.3 5.3
5.7 5.6 5.7 5.6 5.5 5.1 5.1 5.3 4.9 5.5 5.3 4.9 5.4 5.4 5.3 4.9 5.0 4.8 4.9 5.2 5.3 5.4 5.5 5.3 5.6 5.8 5.7 5.3 5.1 5.1 5.1 4.9 4.9 5.0 4.9 5.8 6.0 6.1 5.6 5.5 5.5 5.0 5.0 5.0
5.7 5.8 5.7 5.6 5.6 5.5 5.5 5.5 5.4 5.3 5.2 5.0 5.1 5.0 5.1 5.1 5.0 5.0 4.8 5.0 5.6 5.7 5.5 5.7 5.5 5.6 5.8 5.6 5.3 5.1 5.1 5.1 5.3 5.4 5.1 5.0 5.0 4.9 4.7 4.6 4.6 4.6 4.7 4.8
6.0 5.9 5.7 5.7 5.6 5.6 5.5 5.6 5.6 5.4 5.4 5.3 5.4 5.4 5.3 5.3 5.2 5.4 5.3 5.2 5.3 5.3 5.2 5.3 5.4 5.5 5.5 5.2 5.5 5.5 5.4 5.5 5.4 5.5 5.3 5.0 4.9 4.9 4.9 4.6 4.5 4.6 4.7 4.8
5.9 5.9 5.7 5.6 5.4 5.5 5.5 5.6 5.5 5.4 5.5 5.4 5.4 5.3 5.5 5.5 5.4 5.3 5.2 5.2 5.3 5.4 5.4 5.4 5.3 5.4 5.8 5.7 5.8 5.7 5.8 5.6 5.6 5.5 5.3 5.3 5.2 5.1 5.1 4.9 4.7 4.6 4.7 4.7
Wind_Speed
26 25 19 23 27 28 32 31 28 26 30 27 26 23 20 20 15 18 16 13 13 17 16 18 18 20 20 19 19 20 19 19 18 17 16 16 17 17 16 17 17 17 17 15
22 24 24 25 22 28 29 31 33 32 32 25 27 25 19 18 18 18 18 13 14 16 17 18 18 18 19 19 18 19 18 19 17 17 16 16 15 14 14 15 15 15 13 11
21 22 21 23 28 26 24 26 27 28 30 28 29 25 24 24 21 21 22 20 14 16 19 18 20 17 18 17 16 16 16 15 14 16 16 15 14 13 14 14 16 16 16 15
18 17 20 18 18 26 27 27 27 27 24 25 25 26 25 21 20 21 22 23 14 15 18 18 20 20 17 18 16 15 14 13 13 13 14 13 13 14 13 13 16 14 14 13
16 16 10 11 11 5 11 18 26 25 25 28 23 24 24 28 25 21 20 17 12 15 19 16 19 17 16 17 16 14 14 13 13 14 14 14 16 15 13 12 12 14 13 11
14 23 24 11 10 7 5 12 14 17 18 26 19 19 18 24 15 14 15 13 13 17 19 18 16 20 18 19 17 17 16 15 13 13 14 14 13 11 9 9 10 10 13 8
18 16 16 4 7 2 10 7 14 14 19 22 20 19 4 5 15 14 16 12 14 15 16 16 15 18 16 16 17 16 15 14 14 14 13 12 10 8 8 8 6 8 8 8
19 22 24 5 8 12 6 11 13 13 16 22 21 19 6 5 9 12 14 17 19 15 15 15 15 15 15 14 13 13 13 14 13 12 9 7 9 9 8 7 7 8 8 8
12 14 9 8 9 2 7 9 8 8 11 13 4 9 8 9 10 11 13 15 17 16 16 14 13 13 13 11 12 12 12 13 11 9 6 10 8 9 6 5 5 8 8 8
12 12 10 12 9 4 5 4 2 5 1 4 8 11 13 15 15 17 17 17 18 17 17 13 11 12 12 11 12 12 12 10 9 9 9 9 7 7 6 8 8 7 5 3
16 16 16 14 10 9 9 9 11 16 18 9 13 14 15 12 14 14 14 15 15 14 14 14 12 12 10 10 11 12 11 10 9 10 10 8 6 2 2 5 3 4 4 5
9 17 18 14 11 9 10 13 12 15 14 12 16 15 14 12 13 12 13 14 13 14 13 12 12 11 10 9 10 11 11 10 9 9 8 8 8 7 12 10 7 10 11 6
12 20 21 18 19 19 14 12 12 13 14 12 13 13 14 13 12 11 12 13 13 13 12 12 11 12 10 10 10 11 10 9 8 8 11 10 8 9 8 6 11 12 10 8
16 18 15 14 10 16 17 13 12 12 12 12 11 11 12 12 12 11 8 8 11 10 8 11 10 10 10 10 7 8 8 3 9 7 7 7 7 7 7 8 7 6 9 6
18 17 16 13 15 14 16 18 10 11 12 13 12 11 11 9 10 9 7 8 6 9 8 9 9 10 10 10 9 9 8 7 7 7 7 6 6 6 6 6 6 10 7 5
16 18 19 17 15 13 15 13 15 9 10 11 10 10 8 7 7 5 4 5 3 5 3 7 10 8 8 8 8 7 4 4 6 7 7 6 6 6 6 5 6 9 7 7
13 17 17 14 10 7 5 6 9 14 9 6 5 7 8 6 6 7 6 5 4 2 1 3 7 6 7 8 9 7 7 7 3 4 6 6 6 6 6 6 6 6 7 11
10 10 9 6 5 2 6 1 6 0 5 8 6 5 3 4 6 5 2 2 3 5 2 5 4 5 8 8 8 5 6 7 9 7 7 5 5 4 5 5 3 2 9 9
9 8 3 7 9 7 10 7 3 5 0 3 3 3 4 5 4 2 2 1 4 5 2 2 4 3 5 3 4 5 5 6 4 4 4 3 5 5 4 2 2 6 8 8
3 5 7 7 7 7 5 4 6 4 5 4 3 3 4 4 2 2 5 6 7 6 4 7 5 5 5 4 6 2 2 5 4 3 2 4 5 2 4 3 2 3 2 3
10 5 6 9 8 8 8 8 6 7 6 5 5 5 5 2 1 7 5 3 4 4 6 2 3 7 6 4 4 2 2 4 4 2 6 6 6 7 6 7 4 3 4 7
8 8 8 7 8 10 8 7 7 8 6 7 7 6 3 3 5 6 7 6 6 3 5 3 5 10 6 6 6 5 3 2 1 1 3 3 5 5 6 5 8 9 9 10
6 9 8 7 6 9 7 7 8 8 5 5 7 6 6 5 4 5 4 5 0 6 4 5 9 9 8 7 2 2 2 1 2 2 3 3 4 5 5 6 5 5 5 5
6 6 4 6 8 7 7 5 5 5 2 4 6 5 6 6 1 5 7 7 2 5 4 5 7 2 7 8 4 4 4 4 4 4 3 2 5 6 5 5 6 7 7 4
5 7 7 8 7 5 3 3 3 5 3 4 5 6 5 3 2 5 4 6 6 2 6 6 8 5 6 9 7 2 4 8 6 5 3 4 5 5 6 6 6 6 7 7
11 8 8 9 8 8 9 8 8 7 7 7 7 7 6 5 4 4 3 1 2 5 6 11 9 8 8 9 9 6 6 11 6 7 7 6 7 8 5 5 7 7 7 7
9 11 7 8 8 8 8 8 8 8 8 6 7 9 8 7 6 5 4 6 7 5 5 4 2 8 8 7 7 5 6 8 5 7 5 6 6 7 7 6 5 6 6 7
Wind_Direction
225 257 241 234 218 228 236 243 237 240 233 237 236 229 225 222 237 258 230 186 216 216 202 193 190 188 194 198 194 195 192 197 200 196 201 202 205 202 199 198 207 202 197 189
240 230 235 256 247 227 224 240 246 245 251 244 242 251 231 211 222 248 262 214 212 214 209 188 193 193 188 196 194 198 189 199 194 187 193 202 202 201 196 209 214 210 200 201
232 233 246 232 236 247 247 232 230 242 251 251 257 254 241 234 234 245 253 252 204 212 209 192 194 190 191 192 200 191 203 195 193 183 190 193 194 198 198 205 213 206 200 201
232 223 234 246 264 247 244 245 238 245 246 245 245 255 257 250 234 233 239 252 205 208 201 189 190 183 187 186 194 191 190 195 187 190 188 192 191 194 193 210 209 214 206 209
236 226 256 289 288 334 326 259 237 236 231 243 243 242 236 248 247 238 236 231 197 201 194 180 186 170 172 178 184 182 182 191 192 191 191 195 203 205 206 208 205 208 217 214
214 239 236 219 59 4 336 270 260 274 256 238 233 245 235 216 217 240 250 240 181 190 177 173 179 169 171 174 177 179 179 184 185 187 193 198 200 202 205 214 214 215 218 206
228 238 246 87 96 58 238 280 339 318 295 281 231 251 222 262 222 221 228 180 162 171 164 173 171 167 171 167 171 171 170 174 177 183 189 189 191 194 193 203 192 204 215 217
216 229 235 85 187 227 4 322 312 303 299 297 243 237 137 173 208 209 185 163 166 161 159 157 155 154 150 161 155 154 159 166 169 174 182 155 166 181 178 181 197 209 214 231
220 214 91 84 77 37 337 313 316 303 304 274 289 133 159 149 167 154 151 147 142 146 138 138 148 143 150 135 140 145 155 155 153 137 158 135 165 149 154 177 198 214 217 233
149 124 102 88 82 115 33 23 313 78 84 158 126 131 150 148 154 138 132 123 126 134 122 118 124 131 123 139 144 138 141 142 145 149 138 134 142 151 163 182 207 224 223 227
101 116 102 80 78 56 20 46 50 63 42 95 109 117 112 103 109 107 112 117 122 124 117 117 115 117 131 139 147 144 149 144 140 142 144 128 84 93 206 60 330 263 188 178
220 128 89 90 90 103 76 57 50 79 69 53 63 57 75 94 101 102 108 105 104 106 107 110 115 119 120 135 151 142 149 150 152 147 149 150 149 122 51 51 52 47 46 31
60 94 97 86 63 39 63 84 89 73 83 85 89 100 107 98 73 50 80 88 98 107 112 116 120 120 138 139 143 159 159 152 160 179 168 175 176 167 170 80 65 55 50 60
103 108 91 72 60 41 42 47 57 76 70 64 60 67 57 65 68 65 62 61 88 92 108 118 123 119 134 143 165 162 133 45 164 181 168 161 159 179 170 160 174 137 51 71
72 83 94 90 57 30 18 9 61 46 48 45 36 43 43 49 53 45 42 50 63 111 139 131 117 141 141 143 167 171 167 182 203 173 160 141 163 178 197 173 187 127 131 125
88 82 71 70 63 44 40 8 352 32 46 38 35 23 30 62 64 81 89 65 44 96 116 161 145 142 148 164 174 168 150 70 196 158 137 175 167 195 186 195 188 143 156 164
90 77 80 62 34 39 79 4 332 340 1 26 43 30 10 30 51 42 28 58 79 78 338 181 125 147 157 182 195 166 160 169 333 188 159 181 178 199 192 198 206 182 194 155
94 95 91 104 120 16 339 163 246 276 335 334 2 44 355 43 37 24 43 139 100 98 50 86 136 172 185 184 218 186 170 160 197 191 172 159 198 196 193 205 220 171 119 142
79 80 145 157 141 165 183 201 300 74 237 323 353 25 35 45 70 19 61 38 104 132 90 148 51 216 186 127 291 219 159 176 161 185 122 130 182 241 227 225 233 93 142 152
40 191 142 102 111 104 81 60 119 134 54 45 89 75 68 59 48 94 71 53 40 66 130 131 182 142 161 150 294 125 167 174 113 163 58 241 219 176 85 55 265 201 157 159
114 98 39 72 70 80 97 104 89 45 59 73 68 48 48 41 82 34 93 115 94 53 86 218 183 138 176 163 230 338 173 186 209 202 205 210 226 235 195 220 180 233 192 211
67 66 53 62 77 66 57 68 72 87 82 44 58 40 33 65 59 62 49 59 101 274 280 60 84 25 66 331 241 192 151 128 282 274 260 285 291 292 293 207 196 205 224 185
81 65 51 62 62 79 53 50 54 53 64 52 52 25 13 22 79 117 80 38 163 85 8 79 72 44 351 281 236 235 140 174 230 235 259 273 274 282 281 273 270 258 251 249
97 72 31 79 56 53 38 18 82 68 42 93 40 40 348 56 52 76 98 100 74 12 65 117 105 57 316 288 235 226 210 188 236 259 273 46 285 285 286 274 265 242 253 220
44 90 22 20 43 59 76 347 199 92 109 159 177 185 187 116 2 43 349 113 121 283 92 136 154 182 257 279 277 220 303 274 259 263 270 282 268 265 284 280 270 269 272 242
28 47 67 43 18 11 12 4 350 34 352 12 8 8 8 6 73 341 163 314 230 181 252 176 191 202 237 252 259 274 213 256 216 223 237 239 273 297 284 276 283 261 244 250
72 21 26 19 19 359 12 342 342 350 349 25 344 328 331 347 8 309 331 341 335 328 305 320 264 195 261 274 273 246 286 287 319 301 273 251 253 245 246 250 263 275 266 261